GW5470 Weather Reports


time (UTC)temp
C
wind
direction
speed
KPH
gust
KPH
rain 1hr
cm
rain 24hr
cm
rain mn
cm
humidity
%
barometer
mb
20260904152049 31 142 1.6 3.2 0.00 0.00 0.00 68 1016.9
20260904151544 31 226 3.2 4.8 0.00 0.00 0.00 67 1016.7
20260904151043 31 123 1.6 1.6 0.00 0.00 0.00 70 1017.0
20260904150538 31 164 4.8 4.8 0.00 0.00 0.00 69 1016.9
20260904150033 30 197 0.0 0.0 0.00 0.00 0.00 73 1016.9
20260904145532 30 199 0.0 0.0 0.00 0.00 0.00 74 1017.1
20260904145027 31 44 3.2 3.2 0.00 0.00 0.00 71 1017.1
20260904144523 31 217 0.0 1.6 0.00 0.00 0.00 70 1017.0
20260904144019 31 191 0.0 0.0 0.00 0.00 0.00 74 1016.9
20260904143514 30 178 1.6 1.6 0.00 0.00 0.00 73 1016.9
20260904143012 30 181 1.6 1.6 0.00 0.00 0.00 76 1016.8
20260904142508 29 140 3.2 3.2 0.00 0.00 0.00 76 1016.8
20260904142007 28 190 3.2 3.2 0.00 0.00 0.00 84 1016.7
20260904141502 28 165 1.6 1.6 0.00 0.00 0.00 80 1017.1
20260904140959 28 152 3.2 4.8 0.00 0.00 0.00 80 1017.0
20260904140459 28 142 3.2 4.8 0.00 0.00 0.00 79 1017.0
20260904135957 28 168 0.0 1.6 0.00 0.00 0.00 80 1016.8
20260904135452 27 174 1.6 3.2 0.00 0.00 0.00 81 1016.7
20260904134948 27 156 1.6 1.6 0.00 0.00 0.00 82 1016.9
20260904134442 27 172 3.2 3.2 0.00 0.00 0.00 83 1016.8
20260904133937 27 173 1.6 1.6 0.00 0.00 0.00 84 1016.9
20260904133431 26 176 0.0 0.0 0.00 0.00 0.00 90 1017.1
20260904132927 25 185 0.0 0.0 0.00 0.00 0.00 91 1017.0
20260904132422 25 205 0.0 0.0 0.00 0.00 0.00 96 1017.3
20260904131922 24 205 0.0 0.0 0.00 0.00 0.00 98 1017.2
20260904131417 24 205 0.0 0.0 0.00 0.00 0.00 99 1017.2
20260904130913 24 205 0.0 0.0 0.00 0.00 0.00 99 1017.1
20260904130411 24 205 0.0 0.0 0.00 0.00 0.00 99 1017.5
20260904125907 23 205 0.0 0.0 0.00 0.00 0.00 99 1017.4
20260904125403 23 205 0.0 0.0 0.00 0.00 0.00 99 1017.7
20260904124902 23 205 0.0 0.0 0.00 0.00 0.00 99 1017.6
20260904124354 23 205 0.0 0.0 0.00 0.00 0.00 99 1017.5
20260904123854 23 205 0.0 0.0 0.00 0.00 0.00 99 1017.6
20260904123350 22 205 0.0 0.0 0.00 0.00 0.00 99 1017.5
20260904122845 22 205 0.0 0.0 0.00 0.00 0.00 99 1017.5
20260904122344 22 205 0.0 0.0 0.00 0.00 0.00 99 1017.6
20260904121839 22 205 0.0 0.0 0.00 0.00 0.00 99 1017.5
20260904121335 21 205 0.0 0.0 0.00 0.00 0.00 99 1017.4
20260904120831 21 205 0.0 0.0 0.00 0.00 0.00 99 1017.4
20260904120327 21 205 0.0 0.0 0.00 0.00 0.00 99 1017.6
20260904115822 21 205 0.0 0.0 0.00 0.00 0.00 99 1017.5
20260904115318 21 205 0.0 0.0 0.00 0.00 0.00 99 1017.4
20260904114817 21 205 0.0 0.0 0.00 0.00 0.00 99 1017.2
20260904114312 21 205 0.0 0.0 0.00 0.00 0.00 99 1017.3
20260904113807 21 205 0.0 0.0 0.00 0.00 0.00 99 1017.3
20260904113306 21 205 0.0 0.0 0.00 0.00 0.00 99 1017.0
20260904112801 21 205 0.0 0.0 0.00 0.00 0.00 99 1017.0
20260904112256 21 205 0.0 0.0 0.00 0.00 0.00 99 1016.9
20260904111752 21 206 0.0 0.0 0.00 0.00 0.00 99 1017.0
20260904111248 21 206 0.0 0.0 0.00 0.00 0.00 99 1016.6
20260904110743 21 206 0.0 1.6 0.00 0.00 0.00 99 1016.8
20260904110242 21 205 0.0 0.0 0.00 0.00 0.00 99 1016.5
20260904105737 21 205 0.0 0.0 0.00 0.00 0.00 99 1016.4
20260904105232 21 205 0.0 0.0 0.00 0.00 0.00 99 1016.2
20260904104727 21 206 0.0 0.0 0.00 0.00 0.00 99 1016.1
20260904104223 21 205 0.0 0.0 0.00 0.00 0.00 99 1015.9
20260904103720 21 205 0.0 0.0 0.00 0.00 0.00 99 1015.7
20260904103215 21 205 0.0 0.0 0.00 0.00 0.00 99 1015.9
20260904102710 21 206 0.0 0.0 0.00 0.00 0.00 99 1015.9
20260904102205 21 205 0.0 0.0 0.00 0.00 0.00 99 1016.0
20260904101702 21 205 0.0 0.0 0.00 0.00 0.00 99 1016.0
20260904101157 21 205 0.0 0.0 0.00 0.00 0.00 99 1016.0
20260904100653 21 205 0.0 0.0 0.00 0.00 0.00 99 1015.9
20260904100149 21 205 0.0 0.0 0.00 0.00 0.00 99 1015.9
20260904095648 21 205 0.0 0.0 0.00 0.00 0.00 99 1015.8
20260904095148 21 206 0.0 0.0 0.00 0.00 0.00 99 1015.9
20260904094644 21 206 0.0 0.0 0.00 0.00 0.00 99 1015.8
20260904094138 21 205 0.0 0.0 0.00 0.00 0.00 99 1015.8
20260904093636 21 206 0.0 0.0 0.00 0.00 0.00 99 1016.0
20260904093135 21 205 0.0 0.0 0.00 0.00 0.00 99 1016.0
20260904092631 21 205 0.0 0.0 0.00 0.00 0.00 99 1015.9
20260904092127 21 205 0.0 0.0 0.00 0.00 0.00 99 1015.9
20260904091623 21 206 0.0 0.0 0.00 0.00 0.00 99 1015.9
20260904091123 21 205 0.0 0.0 0.00 0.00 0.00 99 1016.0
20260904090618 21 206 0.0 0.0 0.00 0.00 0.00 99 1015.7
20260904090114 21 206 0.0 0.0 0.00 0.00 0.00 99 1015.9
20260904085608 21 205 0.0 0.0 0.00 0.00 0.00 99 1015.7
20260904085108 21 205 0.0 0.0 0.00 0.00 0.00 99 1015.9
20260904084603 21 205 0.0 0.0 0.00 0.00 0.00 99 1015.8
20260904084100 21 206 0.0 0.0 0.00 0.00 0.00 99 1015.8
20260904083556 21 206 0.0 0.0 0.00 0.00 0.00 99 1015.7
20260904083051 21 206 0.0 0.0 0.00 0.00 0.00 99 1015.8
20260904082546 21 205 0.0 0.0 0.00 0.00 0.00 99 1015.8
20260904082041 21 205 0.0 0.0 0.00 0.00 0.00 99 1015.8
20260904081537 21 205 0.0 0.0 0.00 0.00 0.00 99 1015.8
20260904081032 21 205 0.0 0.0 0.00 0.00 0.00 99 1015.8
20260904080527 21 205 0.0 0.0 0.00 0.00 0.00 99 1015.7
20260904080024 21 206 0.0 0.0 0.00 0.00 0.00 99 1015.9
20260904075519 21 206 0.0 0.0 0.00 0.00 0.00 99 1016.0
20260904075015 21 205 0.0 0.0 0.00 0.00 0.00 99 1015.9
20260904074509 22 206 0.0 0.0 0.00 0.00 0.00 99 1015.9
20260904074003 22 205 0.0 0.0 0.00 0.00 0.00 99 1016.0
20260904073459 22 205 0.0 0.0 0.00 0.00 0.00 99 1016.0
20260904072955 22 206 0.0 0.0 0.00 0.00 0.00 99 1015.9
20260904072450 22 206 0.0 0.0 0.00 0.00 0.00 99 1016.0
20260904071950 22 206 0.0 0.0 0.00 0.00 0.00 99 1016.1
20260904071446 22 205 0.0 0.0 0.00 0.00 0.00 99 1016.0
20260904070946 22 206 0.0 0.0 0.00 0.00 0.00 99 1016.2
20260904070444 22 205 0.0 0.0 0.00 0.00 0.00 99 1016.1
20260904065939 22 205 0.0 0.0 0.00 0.00 0.00 99 1016.1
20260904065435 22 205 0.0 0.0 0.00 0.00 0.00 99 1016.2
20260904064930 22 205 0.0 0.0 0.00 0.00 0.00 99 1016.3
20260904064426 22 206 0.0 0.0 0.00 0.00 0.00 99 1016.3
20260904063921 22 206 0.0 0.0 0.00 0.00 0.00 99 1016.2
20260904063418 22 205 0.0 0.0 0.00 0.00 0.00 99 1016.2
20260904062912 22 205 0.0 0.0 0.00 0.00 0.00 99 1016.1
20260904062409 22 205 0.0 0.0 0.00 0.00 0.00 99 1016.1
20260904061904 22 205 0.0 0.0 0.00 0.00 0.00 99 1016.2
20260904061400 22 205 0.0 0.0 0.00 0.00 0.00 99 1016.1
20260904060856 22 205 0.0 0.0 0.00 0.00 0.00 99 1016.3
20260904060352 22 205 0.0 0.0 0.00 0.00 0.00 99 1016.4
20260904055847 22 205 0.0 0.0 0.00 0.00 0.00 99 1016.1
20260904055342 22 206 0.0 0.0 0.00 0.00 0.00 99 1016.3
20260904054838 23 206 0.0 0.0 0.00 0.00 0.00 99 1016.4
20260904054334 22 205 0.0 0.0 0.00 0.00 0.00 99 1016.3
20260904053829 23 206 0.0 0.0 0.00 0.00 0.00 99 1016.5
20260904053328 23 206 0.0 0.0 0.00 0.00 0.00 99 1016.5
20260904052825 23 205 0.0 0.0 0.00 0.00 0.00 99 1016.6
20260904052321 23 205 0.0 0.0 0.00 0.00 0.00 99 1016.8
20260904051818 23 205 0.0 0.0 0.00 0.00 0.00 99 1016.8
20260904051313 23 205 0.0 0.0 0.00 0.00 0.00 99 1016.8
20260904050808 23 205 0.0 0.0 0.00 0.00 0.00 99 1017.0
20260904050304 23 206 0.0 0.0 0.00 0.00 0.00 99 1017.1
20260904045758 23 205 0.0 0.0 0.00 0.00 0.00 99 1017.1
20260904045254 23 205 0.0 0.0 0.00 0.00 0.00 99 1017.0
20260904044748 23 205 0.0 0.0 0.00 0.00 0.00 99 1016.9
20260904044245 23 205 0.0 0.0 0.00 0.00 0.00 99 1017.0
20260904043740 23 205 0.0 0.0 0.00 0.00 0.00 99 1017.0
20260904043237 23 205 0.0 0.0 0.00 0.00 0.00 99 1017.0
20260904042732 23 205 0.0 0.0 0.00 0.00 0.00 99 1017.0
20260904042228 23 206 0.0 0.0 0.00 0.00 0.00 99 1016.8
20260904041727 23 206 0.0 0.0 0.00 0.00 0.00 99 1016.9
20260904041224 23 206 0.0 0.0 0.00 0.00 0.00 99 1017.0
20260904040720 24 206 0.0 0.0 0.00 0.00 0.00 99 1017.0
20260904040215 24 205 0.0 0.0 0.00 0.00 0.00 99 1016.9
20260904035711 24 205 0.0 0.0 0.00 0.00 0.00 99 1016.8
20260904035206 24 204 0.0 1.6 0.00 0.00 0.00 99 1016.8
20260904034705 24 31 4.8 4.8 0.00 0.00 0.00 99 1016.8
20260904034201 24 181 1.6 1.6 0.00 0.00 0.00 99 1016.7
20260904033657 24 223 1.6 3.2 0.00 0.00 0.00 99 1016.6
20260904033153 23 207 1.6 1.6 0.00 0.00 0.00 99 1016.6
20260904032649 23 207 0.0 0.0 0.00 0.00 0.00 99 1016.5
20260904032148 23 207 0.0 0.0 0.00 0.00 0.00 99 1016.4
20260904031647 24 207 0.0 0.0 0.00 0.00 0.00 99 1016.5
20260904031143 23 207 0.0 0.0 0.00 0.00 0.00 99 1016.4
20260904030639 24 207 0.0 0.0 0.00 0.00 0.00 99 1016.3
20260904030134 24 207 0.0 0.0 0.00 0.00 0.00 99 1016.3
20260904025630 24 207 0.0 0.0 0.00 0.00 0.00 99 1016.3
20260904025125 24 207 0.0 0.0 0.00 0.00 0.00 99 1015.9
20260904024621 24 207 0.0 0.0 0.00 0.00 0.00 99 1016.1
20260904024116 24 207 0.0 0.0 0.00 0.00 0.00 99 1016.1
20260904023612 25 207 0.0 0.0 0.00 0.00 0.00 99 1016.5
20260904023108 25 207 0.0 0.0 0.00 0.00 0.00 99 1016.1
20260904022607 25 207 0.0 0.0 0.00 0.00 0.00 99 1016.4
20260904022104 24 207 0.0 0.0 0.00 0.00 0.00 99 1016.1
20260904021559 25 207 0.0 0.0 0.00 0.00 0.00 99 1016.3
20260904021054 25 207 0.0 0.0 0.00 0.00 0.00 99 1016.3
20260904020549 25 207 0.0 0.0 0.00 0.00 0.00 99 1016.3
20260904020044 25 207 0.0 0.0 0.00 0.00 0.00 99 1016.2
20260904015539 25 207 0.0 0.0 0.00 0.00 0.00 98 1016.1
20260904015038 25 207 0.0 0.0 0.00 0.00 0.00 98 1016.2
20260904014532 25 207 0.0 0.0 0.00 0.00 0.00 98 1016.3
20260904014027 25 207 0.0 0.0 0.00 0.00 0.00 98 1016.4
20260904013524 25 207 0.0 0.0 0.00 0.00 0.00 98 1016.4
20260904013020 25 207 0.0 0.0 0.00 0.00 0.00 98 1016.3
20260904012520 25 207 0.0 0.0 0.00 0.00 0.00 98 1016.1
20260904012014 25 207 0.0 0.0 0.00 0.00 0.00 98 1015.9
20260904011508 25 207 0.0 0.0 0.00 0.00 0.00 98 1015.9
20260904011004 25 207 0.0 0.0 0.00 0.00 0.00 97 1016.0
20260904010501 25 207 0.0 0.0 0.00 0.00 0.00 97 1015.9
20260904010001 25 207 0.0 0.0 0.00 0.00 0.00 97 1015.8
20260904005456 26 207 0.0 0.0 0.00 0.00 0.00 97 1015.8
20260904004950 26 207 0.0 0.0 0.00 0.00 0.00 97 1015.9
20260904004447 26 207 0.0 0.0 0.00 0.00 0.00 96 1016.0
20260904003942 26 207 0.0 0.0 0.00 0.00 0.00 96 1015.9
20260904003438 26 207 0.0 0.0 0.00 0.00 0.00 95 1015.7
20260904002933 26 207 0.0 0.0 0.00 0.00 0.00 95 1015.9
20260904002429 26 207 0.0 0.0 0.00 0.00 0.00 95 1015.7
20260904001928 26 207 0.0 0.0 0.00 0.00 0.00 94 1015.8
20260904001423 26 207 0.0 0.0 0.00 0.00 0.00 94 1015.8
20260904000918 27 207 0.0 0.0 0.00 0.00 0.00 93 1015.8
20260904000418 27 207 0.0 0.0 0.00 0.00 0.00 93 1015.7
20260903235912 27 207 0.0 0.0 0.00 0.00 0.00 92 1015.5
20260903235408 27 207 0.0 0.0 0.00 0.00 0.00 91 1015.6
20260903234908 27 207 0.0 0.0 0.00 0.00 0.00 91 1015.5
20260903234404 27 207 0.0 0.0 0.00 0.00 0.00 90 1015.6
20260903233859 27 207 0.0 0.0 0.00 0.00 0.00 89 1015.6
20260903233356 28 207 0.0 0.0 0.00 0.00 0.00 88 1015.4
20260903232854 28 208 0.0 0.0 0.00 0.00 0.00 87 1015.2
20260903232350 28 207 0.0 0.0 0.00 0.00 0.00 86 1015.3
20260903231850 28 207 0.0 0.0 0.00 0.00 0.00 86 1015.1
20260903231345 28 207 0.0 0.0 0.00 0.00 0.00 84 1015.1
20260903230840 28 207 0.0 0.0 0.00 0.00 0.00 84 1015.5
20260903230336 29 207 0.0 0.0 0.00 0.00 0.00 83 1015.2
20260903225832 29 207 0.0 0.0 0.00 0.00 0.00 83 1015.4
20260903225327 29 207 0.0 0.0 0.00 0.00 0.00 82 1015.3
20260903224824 29 207 0.0 0.0 0.00 0.00 0.00 80 1015.3
20260903224319 30 207 0.0 0.0 0.00 0.00 0.00 80 1015.3
20260903223815 30 207 0.0 0.0 0.00 0.00 0.00 78 1015.3
20260903223314 30 207 0.0 0.0 0.00 0.00 0.00 78 1015.2
20260903222809 30 207 0.0 0.0 0.00 0.00 0.00 78 1015.2
20260903222308 30 207 0.0 0.0 0.00 0.00 0.00 74 1015.3
20260903221803 30 207 0.0 0.0 0.00 0.00 0.00 74 1015.3
20260903221301 30 207 0.0 0.0 0.00 0.00 0.00 74 1015.3
20260903220800 31 208 0.0 1.6 0.00 0.00 0.00 74 1015.0
20260903220255 31 211 0.0 1.6 0.00 0.00 0.00 69 1015.0
20260903215753 31 211 0.0 0.0 0.00 0.00 0.00 68 1014.9
20260903215249 31 211 0.0 1.6 0.00 0.00 0.00 69 1014.5
20260903214741 33 195 0.0 1.6 0.00 0.00 0.00 61 1014.7
20260903214238 33 213 0.0 1.6 0.00 0.00 0.00 65 1014.3
20260903213732 33 212 1.6 1.6 0.00 0.00 0.00 62 1014.5
20260903213228 33 207 1.6 1.6 0.00 0.00 0.00 62 1014.7
20260903212723 33 207 0.0 0.0 0.00 0.00 0.00 63 1014.5
20260903212220 35 214 0.0 1.6 0.00 0.00 0.00 59 1014.5
20260903211719 35 212 0.0 0.0 0.00 0.00 0.00 58 1014.4
20260903211215 35 211 1.6 1.6 0.00 0.00 0.00 59 1014.4
20260903210712 34 209 0.0 0.0 0.00 0.00 0.00 58 1014.5
20260903210207 34 220 1.6 3.2 0.00 0.00 0.00 60 1014.3
20260903205706 34 207 1.6 3.2 0.00 0.00 0.00 58 1014.4
20260903205205 33 225 0.0 1.6 0.00 0.00 0.00 60 1014.9
20260903204701 34 200 0.0 1.6 0.00 0.00 0.00 57 1015.0
20260903204157 33 131 1.6 3.2 0.00 0.00 0.00 58 1015.0
20260903203653 35 219 1.6 1.6 0.00 0.00 0.00 59 1015.0
20260903203148 35 228 1.6 3.2 0.00 0.00 0.00 60 1015.3
20260903202642 35 187 3.2 3.2 0.00 0.00 0.00 52 1015.3
20260903202138 35 199 0.0 1.6 0.00 0.00 0.00 53 1015.2
20260903201638 35 199 3.2 3.2 0.00 0.00 0.00 62 1015.5
20260903201137 35 204 0.0 1.6 0.00 0.00 0.00 55 1015.5
20260903200632 35 8 3.2 4.8 0.00 0.00 0.00 53 1015.6
20260903200128 35 193 3.2 3.2 0.00 0.00 0.00 52 1015.6
20260903195624 35 177 1.6 3.2 0.00 0.00 0.00 52 1015.6
20260903195119 35 73 1.6 3.2 0.00 0.00 0.00 54 1015.6
20260903194614 35 214 1.6 1.6 0.00 0.00 0.00 52 1015.8
20260903194114 35 314 4.8 4.8 0.00 0.00 0.00 52 1015.7
20260903193610 36 221 1.6 1.6 0.00 0.00 0.00 49 1015.7
20260903193106 35 204 0.0 1.6 0.00 0.00 0.00 54 1015.9
20260903192603 35 185 1.6 1.6 0.00 0.00 0.00 55 1015.8
20260903192103 35 186 1.6 1.6 0.00 0.00 0.00 53 1016.2
20260903191559 35 204 0.0 0.0 0.00 0.00 0.00 55 1016.1
20260903191054 34 202 0.0 0.0 0.00 0.00 0.00 61 1016.2
20260903190553 34 186 0.0 1.6 0.00 0.00 0.00 57 1016.5
20260903190053 34 276 4.8 4.8 0.00 0.00 0.00 59 1016.4
20260903185548 34 212 0.0 1.6 0.00 0.00 0.00 56 1016.5
20260903185044 33 212 0.0 0.0 0.00 0.00 0.00 59 1016.7
20260903184540 35 25 4.8 4.8 0.00 0.00 0.00 53 1016.5
20260903184035 35 178 1.6 1.6 0.00 0.00 0.00 54 1016.4
20260903183534 35 209 0.0 1.6 0.00 0.00 0.00 55 1016.5
20260903183029 35 49 1.6 3.2 0.00 0.00 0.00 56 1016.6
20260903182527 33 188 0.0 0.0 0.00 0.00 0.00 55 1016.7
20260903182024 33 216 0.0 0.0 0.00 0.00 0.00 56 1016.8
20260903181517 34 212 1.6 1.6 0.00 0.00 0.00 62 1016.8
20260903181017 35 172 1.6 1.6 0.00 0.00 0.00 56 1016.7
20260903180513 35 186 3.2 4.8 0.00 0.00 0.00 57 1016.8
20260903180012 35 189 4.8 4.8 0.00 0.00 0.00 52 1016.9
20260903175511 35 211 0.0 1.6 0.00 0.00 0.00 52 1016.9
20260903175010 35 210 0.0 1.6 0.00 0.00 0.00 53 1017.0
20260903174505 35 13 4.8 4.8 0.00 0.00 0.00 53 1017.0
20260903174000 35 202 1.6 1.6 0.00 0.00 0.00 53 1017.2
20260903173455 35 271 1.6 3.2 0.00 0.00 0.00 57 1017.2
20260903172951 35 300 3.2 3.2 0.00 0.00 0.00 53 1017.2
20260903172446 34 208 1.6 1.6 0.00 0.00 0.00 58 1017.1
20260903171941 35 226 4.8 4.8 0.00 0.00 0.00 54 1017.2
20260903171436 34 208 3.2 3.2 0.00 0.00 0.00 55 1017.2
20260903170936 34 192 1.6 1.6 0.00 0.00 0.00 55 1017.2
20260903170431 34 216 6.4 6.4 0.00 0.00 0.00 53 1017.4
20260903165930 34 195 1.6 1.6 0.00 0.00 0.00 56 1017.3
20260903165424 34 192 0.0 0.0 0.00 0.00 0.00 59 1017.2
20260903164924 34 61 3.2 3.2 0.00 0.00 0.00 55 1017.3
20260903164419 33 139 1.6 1.6 0.00 0.00 0.00 56 1017.5
20260903163919 33 168 1.6 1.6 0.00 0.00 0.00 57 1017.5
20260903163416 33 28 0.0 3.2 0.00 0.00 0.00 58 1017.6
20260903162912 33 221 3.2 4.8 0.00 0.00 0.00 59 1017.6
20260903162408 33 193 0.0 1.6 0.00 0.00 0.00 60 1017.4
20260903161903 33 233 3.2 3.2 0.00 0.00 0.00 58 1017.5
20260903161358 32 125 4.8 6.4 0.00 0.00 0.00 61 1017.5
20260903160854 33 127 3.2 4.8 0.00 0.00 0.00 62 1017.6
20260903160352 33 207 0.0 1.6 0.00 0.00 0.00 59 1017.6
20260903155851 33 225 0.0 0.0 0.00 0.00 0.00 60 1017.5
20260903155347 33 222 1.6 1.6 0.00 0.00 0.00 65 1017.8
20260903154842 33 200 0.0 0.0 0.00 0.00 0.00 61 1017.6
20260903154338 33 183 1.6 1.6 0.00 0.00 0.00 62 1017.9
20260903153833 32 44 4.8 4.8 0.00 0.00 0.00 62 1017.8
20260903153329 32 46 4.8 4.8 0.00 0.00 0.00 64 1017.8
20260903152825 32 150 0.0 0.0 0.00 0.00 0.00 66 1017.8
20260903152321 32 58 4.8 4.8 0.00 0.00 0.00 63 1017.8